{"data":{"norad_id":65368,"intl_designator":"2025-190T","name":"STARLINK-34259","alt_names":[],"object_type":"PAYLOAD","status":"ACTIVE","operator":null,"country":"US","launch_date":"2025-08-28","launch_site_code":"AFETR","launch_vehicle":null,"mission":null,"orbit_class":"UNKNOWN","rcs_meters":null,"size_class":null,"mass_kg":null,"dimensions":null,"purposes":["comms"],"wikipedia_slug":null,"has_3d_model":false,"image_url":null,"decayed_at":null,"tle_current":{"epoch":"2026-05-24T12:09:39.413952Z","epoch_age_seconds":117635,"freshness":"FRESH","line1":"1 65368U 25190T   26144.50670618  .00340853  00000+0  97270-2 0  9994","line2":"2 65368  53.1588 175.9796 0001401  84.5764 275.5399 15.34146517 41365","mean_motion":15.34146517,"eccentricity":0.0001401,"inclination_deg":53.1588,"raan_deg":175.9796,"arg_perigee_deg":84.5764,"mean_anomaly_deg":275.5399,"bstar":0.009727,"rev_number":4136,"period_min":93.863264299938,"perigee_km":462.49824155204,"apogee_km":464.41525612046,"semimajor_km":6841.5937488362,"source":"CELESTRAK","updated_at":"2026-05-25T13:38:20.768713Z"}}}